Location: Casteau
(50.5142°N, 4.0161°E)
Time: 23:12:11
(UTC+00:00)

ARGOS - Pass Details

Date: 18 September 2020
Orbit: 821 x 834 km, 98.4° (Epoch: 31 October)

Event Time Altitude Azimuth Distance (km) Brightness Sun altitude
Rises 19:14:54 0° 174° (S) 3,341 6.1 -14.0°
Reaches altitude 10° 19:17:16 10° 178° (S) 2,414 5.4 -14.3°
Maximum altitude 19:22:33 61° 259° (WSW) 933 3.7 -15.1°
Drops below altitude 10° 19:27:54 10° 339° (NNW) 2,438 6.2 -15.9°
Sets 19:30:18 0° 343° (NNW) 3,378 6.9 -16.3°
